Time,TemperatureF,DewpointF,PressureIn,WindDirection,WindDirectionDegrees,WindSpeedMPH,WindSpeedGustMPH,Humidity,HourlyPrecipIn,Conditions,Clouds,dailyrainin,SoftwareType,DateUTC
2013-04-27 00:00:00,38.0,32.1,30.44,SSE,149,2.0,2.0,79,0.00,,,0.00,Wunderground v.1.15,2013-04-27 04:00:00,
2013-04-27 00:10:00,36.9,32.2,30.44,SSE,149,1.0,1.0,83,0.00,,,0.00,Wunderground v.1.15,2013-04-27 04:10:00,
2013-04-27 00:20:00,36.8,31.8,30.44,SSE,149,0.0,5.0,82,0.00,,,0.00,Wunderground v.1.15,2013-04-27 04:20:00,
2013-04-27 00:31:00,35.3,31.8,30.45,SSE,149,0.0,5.0,87,0.00,,,0.00,Wunderground v.1.15,2013-04-27 04:31:00,
2013-04-27 00:40:00,34.6,31.7,30.45,SSE,149,1.0,5.0,89,0.00,,,0.00,Wunderground v.1.15,2013-04-27 04:40:00,
2013-04-27 00:50:00,35.0,31.8,30.45,SSE,149,1.0,5.0,88,0.00,,,0.00,Wunderground v.1.15,2013-04-27 04:50:00,
2013-04-27 01:01:00,34.8,31.3,30.44,SSE,149,0.0,5.0,87,0.00,,,0.00,Wunderground v.1.15,2013-04-27 05:01:00,
2013-04-27 01:10:00,35.5,31.7,30.44,SSE,149,1.0,5.0,86,0.00,,,0.00,Wunderground v.1.15,2013-04-27 05:10:00,
2013-04-27 01:21:00,35.8,31.4,30.44,SSE,148,1.0,5.0,84,0.00,,,0.00,Wunderground v.1.15,2013-04-27 05:21:00,
2013-04-27 01:30:00,35.0,30.9,30.44,SSE,148,1.0,1.0,85,0.00,,,0.00,Wunderground v.1.15,2013-04-27 05:30:00,
2013-04-27 01:39:00,34.5,31.0,30.43,SSE,148,0.0,5.0,87,0.00,,,0.00,Wunderground v.1.15,2013-04-27 05:39:00,
2013-04-27 01:50:00,34.4,30.6,30.43,SSE,148,1.0,1.0,86,0.00,,,0.00,Wunderground v.1.15,2013-04-27 05:50:00,
2013-04-27 02:00:00,34.5,31.3,30.43,SSE,148,1.0,5.0,88,0.00,,,0.00,Wunderground v.1.15,2013-04-27 06:00:00,
2013-04-27 02:10:00,35.7,31.3,30.42,SSE,149,2.0,5.0,84,0.00,,,0.00,Wunderground v.1.15,2013-04-27 06:10:00,
2013-04-27 02:20:00,35.2,30.9,30.42,SSE,154,3.0,3.0,84,0.00,,,0.00,Wunderground v.1.15,2013-04-27 06:20:00,
2013-04-27 02:30:00,36.8,31.8,30.42,SSE,164,3.0,5.0,82,0.00,,,0.00,Wunderground v.1.15,2013-04-27 06:30:00,
2013-04-27 02:40:00,35.9,31.2,30.42,SSE,159,2.0,2.0,83,0.00,,,0.00,Wunderground v.1.15,2013-04-27 06:40:00,
2013-04-27 02:50:00,35.8,31.1,30.42,SSE,159,1.0,5.0,83,0.00,,,0.00,Wunderground v.1.15,2013-04-27 06:50:00,
2013-04-27 03:00:00,35.4,31.0,30.42,SSE,161,2.0,5.0,84,0.00,,,0.00,Wunderground v.1.15,2013-04-27 07:00:00,
2013-04-27 03:10:00,36.0,31.3,30.42,SSE,164,2.0,5.0,83,0.00,,,0.00,Wunderground v.1.15,2013-04-27 07:10:00,
2013-04-27 03:20:00,35.7,31.0,30.42,South,169,1.0,5.0,83,0.00,,,0.00,Wunderground v.1.15,2013-04-27 07:20:00,
2013-04-27 03:30:00,35.8,31.4,30.42,South,169,1.0,5.0,84,0.00,,,0.00,Wunderground v.1.15,2013-04-27 07:30:00,
2013-04-27 03:40:00,36.4,31.7,30.42,South,169,1.0,1.0,83,0.00,,,0.00,Wunderground v.1.15,2013-04-27 07:40:00,
2013-04-27 03:50:00,34.3,30.3,30.42,South,169,0.0,5.0,85,0.00,,,0.00,Wunderground v.1.15,2013-04-27 07:50:00,
2013-04-27 04:00:00,34.1,30.9,30.42,South,169,0.0,5.0,88,0.00,,,0.00,Wunderground v.1.15,2013-04-27 08:00:00,
2013-04-27 04:10:00,34.9,31.4,30.42,South,169,1.0,5.0,87,0.00,,,0.00,Wunderground v.1.15,2013-04-27 08:10:00,
2013-04-27 04:20:00,34.6,30.8,30.42,South,169,1.0,1.0,86,0.00,,,0.00,Wunderground v.1.15,2013-04-27 08:20:00,
2013-04-27 04:30:00,33.2,30.3,30.41,South,169,0.0,5.0,89,0.00,,,0.00,Wunderground v.1.15,2013-04-27 08:30:00,
2013-04-27 04:40:00,34.0,31.1,30.42,South,169,0.0,5.0,89,0.00,,,0.00,Wunderground v.1.15,2013-04-27 08:40:00,
2013-04-27 04:50:00,33.9,31.0,30.41,South,169,1.0,5.0,89,0.00,,,0.00,Wunderground v.1.15,2013-04-27 08:50:00,
2013-04-27 05:00:00,34.2,31.0,30.41,South,169,1.0,5.0,88,0.00,,,0.00,Wunderground v.1.15,2013-04-27 09:00:00,
2013-04-27 05:10:00,34.1,30.9,30.41,South,169,1.0,1.0,88,0.00,,,0.00,Wunderground v.1.15,2013-04-27 09:10:00,
2013-04-27 05:20:00,33.4,30.5,30.40,South,169,0.0,5.0,89,0.00,,,0.00,Wunderground v.1.15,2013-04-27 09:20:00,
2013-04-27 05:31:00,33.4,30.8,30.40,South,169,0.0,5.0,90,0.00,,,0.00,Wunderground v.1.15,2013-04-27 09:31:00,
2013-04-27 05:40:00,33.0,30.4,30.40,SSE,167,1.0,5.0,90,0.00,,,0.00,Wunderground v.1.15,2013-04-27 09:40:00,
2013-04-27 05:51:00,34.3,31.1,30.40,SSE,162,2.0,5.0,88,0.00,,,0.00,Wunderground v.1.15,2013-04-27 09:51:00,
2013-04-27 06:01:00,34.7,30.7,30.40,SSE,155,2.0,2.0,85,0.00,,,0.00,Wunderground v.1.15,2013-04-27 10:01:00,
2013-04-27 06:11:00,34.2,31.0,30.40,SE,128,1.0,1.0,88,0.00,,,0.00,Wunderground v.1.15,2013-04-27 10:11:00,
2013-04-27 06:21:00,34.3,30.5,30.40,SE,128,0.0,0.0,86,0.00,,,0.00,Wunderground v.1.15,2013-04-27 10:21:00,
2013-04-27 06:30:00,33.6,30.4,30.40,SE,128,1.0,1.0,88,0.00,,,0.00,Wunderground v.1.15,2013-04-27 10:30:00,
2013-04-27 06:40:00,33.5,30.3,30.40,SE,128,0.0,0.0,88,0.00,,,0.00,Wunderground v.1.15,2013-04-27 10:40:00,
2013-04-27 06:50:00,33.4,30.5,30.41,SE,128,0.0,1.0,89,0.00,,,0.00,Wunderground v.1.15,2013-04-27 10:50:00,
2013-04-27 07:00:00,33.9,31.3,30.41,SE,128,1.0,1.0,90,0.00,,,0.00,Wunderground v.1.15,2013-04-27 11:00:00,
2013-04-27 07:11:00,34.9,31.7,30.42,North,10,1.0,4.0,88,0.00,,,0.00,Wunderground v.1.15,2013-04-27 11:11:00,
2013-04-27 07:21:00,35.8,32.9,30.42,North,10,1.0,4.0,89,0.00,,,0.00,Wunderground v.1.15,2013-04-27 11:21:00,
2013-04-27 07:31:00,36.6,33.7,30.41,North,10,0.0,4.0,89,0.00,,,0.00,Wunderground v.1.15,2013-04-27 11:31:00,
2013-04-27 07:40:00,38.1,35.4,30.41,North,10,0.0,4.0,90,0.00,,,0.00,Wunderground v.1.15,2013-04-27 11:40:00,
2013-04-27 07:49:00,40.1,36.5,30.42,North,10,0.0,4.0,87,0.00,,,0.00,Wunderground v.1.15,2013-04-27 11:49:00,
2013-04-27 08:00:00,42.0,36.6,30.42,North,10,0.0,4.0,81,0.00,,,0.00,Wunderground v.1.15,2013-04-27 12:00:00,
2013-04-27 08:10:00,43.5,35.4,30.41,South,177,2.0,4.0,73,0.00,,,0.00,Wunderground v.1.15,2013-04-27 12:10:00,
2013-04-27 08:20:00,44.9,35.3,30.41,South,182,2.0,2.0,69,0.00,,,0.00,Wunderground v.1.15,2013-04-27 12:20:00,
2013-04-27 08:30:00,46.0,36.4,30.41,South,180,3.0,3.0,69,0.00,,,0.00,Wunderground v.1.15,2013-04-27 12:30:00,
2013-04-27 08:39:00,46.8,35.6,30.41,South,187,3.0,4.0,65,0.00,,,0.00,Wunderground v.1.15,2013-04-27 12:39:00,
2013-04-27 08:50:00,48.0,35.2,30.41,South,187,3.0,3.0,61,0.00,,,0.00,Wunderground v.1.15,2013-04-27 12:50:00,
2013-04-27 08:59:00,48.9,36.0,30.41,SE,131,2.0,2.0,61,0.00,,,0.00,Wunderground v.1.15,2013-04-27 12:59:00,
2013-04-27 09:10:00,50.3,36.5,30.41,SE,127,3.0,4.0,59,0.00,,,0.00,Wunderground v.1.15,2013-04-27 13:10:00,
2013-04-27 09:19:00,51.7,36.9,30.40,East,101,3.0,3.0,57,0.00,,,0.00,Wunderground v.1.15,2013-04-27 13:19:00,
2013-04-27 09:30:00,52.3,37.1,30.39,SSE,154,3.0,4.0,56,0.00,,,0.00,Wunderground v.1.15,2013-04-27 13:30:00,
2013-04-27 09:40:00,53.3,37.5,30.40,SW,226,3.0,4.0,55,0.00,,,0.00,Wunderground v.1.15,2013-04-27 13:40:00,
2013-04-27 09:49:00,54.5,37.7,30.39,SW,225,2.0,4.0,53,0.00,,,0.00,Wunderground v.1.15,2013-04-27 13:49:00,
2013-04-27 10:00:00,55.5,37.7,30.39,WSW,240,2.0,4.0,51,0.00,,,0.00,Wunderground v.1.15,2013-04-27 14:00:00,
2013-04-27 10:10:00,56.5,38.1,30.39,WSW,242,2.0,4.0,50,0.00,,,0.00,Wunderground v.1.15,2013-04-27 14:10:00,
2013-04-27 10:20:00,57.3,37.8,30.39,WSW,244,2.0,4.0,48,0.00,,,0.00,Wunderground v.1.15,2013-04-27 14:20:00,
2013-04-27 10:30:00,57.2,36.6,30.39,SSW,192,3.0,3.0,46,0.00,,,0.00,Wunderground v.1.15,2013-04-27 14:30:00,
2013-04-27 10:39:00,58.3,37.6,30.39,NNW,340,2.0,4.0,46,0.00,,,0.00,Wunderground v.1.15,2013-04-27 14:39:00,
2013-04-27 10:50:00,59.9,38.5,30.39,NW,318,3.0,4.0,45,0.00,,,0.00,Wunderground v.1.15,2013-04-27 14:50:00,
2013-04-27 10:59:00,59.7,36.6,30.39,North,5,3.0,4.0,42,0.00,,,0.00,Wunderground v.1.15,2013-04-27 14:59:00,
2013-04-27 11:10:00,60.2,38.8,30.39,NW,317,2.0,4.0,45,0.00,,,0.00,Wunderground v.1.15,2013-04-27 15:10:00,
2013-04-27 11:19:00,60.9,38.8,30.38,WSW,242,3.0,3.0,44,0.00,,,0.00,Wunderground v.1.15,2013-04-27 15:19:00,
2013-04-27 11:30:00,60.2,36.4,30.38,NNE,30,3.0,3.0,41,0.00,,,0.00,Wunderground v.1.15,2013-04-27 15:30:00,
2013-04-27 11:40:00,60.7,36.2,30.38,East,98,1.0,4.0,40,0.00,,,0.00,Wunderground v.1.15,2013-04-27 15:40:00,
2013-04-27 11:49:00,61.5,35.0,30.38,NNE,31,3.0,3.0,37,0.00,,,0.00,Wunderground v.1.15,2013-04-27 15:49:00,
2013-04-27 12:00:00,61.9,39.1,30.38,NW,319,2.0,4.0,43,0.00,,,0.00,Wunderground v.1.15,2013-04-27 16:00:00,
2013-04-27 12:10:00,62.3,40.1,30.38,NNW,348,2.0,4.0,44,0.00,,,0.00,Wunderground v.1.15,2013-04-27 16:10:00,
2013-04-27 12:20:00,62.0,36.7,30.37,NNE,15,2.0,4.0,39,0.00,,,0.00,Wunderground v.1.15,2013-04-27 16:20:00,
2013-04-27 12:30:00,63.3,37.9,30.36,NW,325,4.0,5.0,39,0.00,,,0.00,Wunderground v.1.15,2013-04-27 16:30:00,
2013-04-27 12:39:00,63.0,35.6,30.36,SE,134,2.0,2.0,36,0.00,,,0.00,Wunderground v.1.15,2013-04-27 16:39:00,
2013-04-27 12:50:00,62.3,39.5,30.35,NE,35,2.0,4.0,43,0.00,,,0.00,Wunderground v.1.15,2013-04-27 16:50:00,
2013-04-27 13:00:00,63.6,36.8,30.35,SW,235,2.0,4.0,37,0.00,,,0.00,Wunderground v.1.15,2013-04-27 17:00:00,
2013-04-27 13:10:00,63.7,34.8,30.35,West,267,4.0,4.0,34,0.00,,,0.00,Wunderground v.1.15,2013-04-27 17:10:00,
2013-04-27 13:20:00,64.3,37.5,30.34,NE,36,6.0,6.0,37,0.00,,,0.00,Wunderground v.1.15,2013-04-27 17:20:00,
2013-04-27 13:30:00,64.1,36.6,30.34,North,360,4.0,6.0,36,0.00,,,0.00,Wunderground v.1.15,2013-04-27 17:30:00,
2013-04-27 13:40:00,64.4,40.2,30.33,NNE,29,4.0,4.0,41,0.00,,,0.00,Wunderground v.1.15,2013-04-27 17:40:00,
2013-04-27 13:49:00,64.4,38.2,30.33,SSW,203,2.0,4.0,38,0.00,,,0.00,Wunderground v.1.15,2013-04-27 17:49:00,
2013-04-27 14:00:00,64.6,36.3,30.32,WNW,289,2.0,4.0,35,0.00,,,0.00,Wunderground v.1.15,2013-04-27 18:00:00,
2013-04-27 14:10:00,65.6,38.6,30.32,WSW,242,2.0,2.0,37,0.00,,,0.00,Wunderground v.1.15,2013-04-27 18:10:00,
2013-04-27 14:20:00,65.8,35.9,30.32,West,272,2.0,2.0,33,0.00,,,0.00,Wunderground v.1.15,2013-04-27 18:20:00,
2013-04-27 14:30:00,66.4,39.3,30.32,WNW,294,3.0,5.0,37,0.00,,,0.00,Wunderground v.1.15,2013-04-27 18:30:00,
2013-04-27 14:40:00,66.0,37.5,30.32,West,267,3.0,4.0,35,0.00,,,0.00,Wunderground v.1.15,2013-04-27 18:40:00,
2013-04-27 14:50:00,66.3,40.6,30.31,NNE,17,3.0,5.0,39,0.00,,,0.00,Wunderground v.1.15,2013-04-27 18:50:00,
2013-04-27 15:00:00,66.1,35.4,30.30,East,90,4.0,4.0,32,0.00,,,0.00,Wunderground v.1.15,2013-04-27 19:00:00,
2013-04-27 15:10:00,67.0,36.1,30.30,WNW,298,3.0,3.0,32,0.00,,,0.00,Wunderground v.1.15,2013-04-27 19:10:00,
2013-04-27 15:20:00,66.8,38.3,30.29,North,349,2.0,5.0,35,0.00,,,0.00,Wunderground v.1.15,2013-04-27 19:20:00,
2013-04-27 15:30:00,67.0,35.3,30.29,SSW,193,3.0,3.0,31,0.00,,,0.00,Wunderground v.1.15,2013-04-27 19:30:00,
2013-04-27 15:40:00,68.2,40.2,30.28,WNW,299,3.0,4.0,36,0.00,,,0.00,Wunderground v.1.15,2013-04-27 19:40:00,
2013-04-27 15:50:00,67.5,38.9,30.28,NW,325,4.0,4.0,35,0.00,,,0.00,Wunderground v.1.15,2013-04-27 19:50:00,
2013-04-27 16:00:00,66.9,34.4,30.28,ENE,70,3.0,3.0,30,0.00,,,0.00,Wunderground v.1.15,2013-04-27 20:00:00,
2013-04-27 16:10:00,67.0,38.4,30.27,East,97,2.0,2.0,35,0.00,,,0.00,Wunderground v.1.15,2013-04-27 20:10:00,
2013-04-27 16:20:00,67.6,38.2,30.27,WNW,283,3.0,5.0,34,0.00,,,0.00,Wunderground v.1.15,2013-04-27 20:20:00,
2013-04-27 16:30:00,67.6,37.5,30.27,West,265,2.0,2.0,33,0.00,,,0.00,Wunderground v.1.15,2013-04-27 20:30:00,
2013-04-27 16:39:00,67.6,38.2,30.26,East,83,3.0,3.0,34,0.00,,,0.00,Wunderground v.1.15,2013-04-27 20:39:00,
2013-04-27 16:50:00,68.0,37.8,30.26,NNE,31,3.0,6.0,33,0.00,,,0.00,Wunderground v.1.15,2013-04-27 20:50:00,
2013-04-27 17:00:00,67.9,35.3,30.26,NNW,348,3.0,4.0,30,0.00,,,0.00,Wunderground v.1.15,2013-04-27 21:00:00,
2013-04-27 17:10:00,67.5,39.6,30.26,NE,37,5.0,10.0,36,0.00,,,0.00,Wunderground v.1.15,2013-04-27 21:10:00,
2013-04-27 17:20:00,67.0,39.1,30.26,NE,46,8.0,8.0,36,0.00,,,0.00,Wunderground v.1.15,2013-04-27 21:20:00,
2013-04-27 17:30:00,66.3,40.6,30.26,NE,55,9.0,9.0,39,0.00,,,0.00,Wunderground v.1.15,2013-04-27 21:30:00,
2013-04-27 17:40:00,66.2,39.8,30.26,NNE,28,8.0,9.0,38,0.00,,,0.00,Wunderground v.1.15,2013-04-27 21:40:00,
2013-04-27 17:50:00,66.0,40.3,30.25,NNE,27,8.0,8.0,39,0.00,,,0.00,Wunderground v.1.15,2013-04-27 21:50:00,
2013-04-27 18:00:00,65.4,41.1,30.26,North,9,8.0,8.0,41,0.00,,,0.00,Wunderground v.1.15,2013-04-27 22:00:00,
2013-04-27 18:10:00,65.2,39.6,30.25,NNE,30,7.0,10.0,39,0.00,,,0.00,Wunderground v.1.15,2013-04-27 22:10:00,
2013-04-27 18:20:00,64.6,39.7,30.25,NE,40,8.0,8.0,40,0.00,,,0.00,Wunderground v.1.15,2013-04-27 22:20:00,
2013-04-27 18:30:00,64.3,39.4,30.25,NE,36,7.0,8.0,40,0.00,,,0.00,Wunderground v.1.15,2013-04-27 22:30:00,
2013-04-27 18:40:00,63.9,40.3,30.25,NNE,22,8.0,8.0,42,0.00,,,0.00,Wunderground v.1.15,2013-04-27 22:40:00,
2013-04-27 18:50:00,63.7,39.5,30.25,NE,46,6.0,6.0,41,0.00,,,0.00,Wunderground v.1.15,2013-04-27 22:50:00,
2013-04-27 19:00:00,63.3,39.2,30.25,NNE,24,5.0,6.0,41,0.00,,,0.00,Wunderground v.1.15,2013-04-27 23:00:00,
2013-04-27 19:10:00,62.7,39.3,30.25,NE,53,6.0,6.0,42,0.00,,,0.00,Wunderground v.1.15,2013-04-27 23:10:00,
2013-04-27 19:20:00,62.2,39.4,30.24,NE,36,5.0,5.0,43,0.00,,,0.00,Wunderground v.1.15,2013-04-27 23:20:00,
2013-04-27 19:30:00,61.2,39.7,30.24,NNE,26,5.0,5.0,45,0.00,,,0.00,Wunderground v.1.15,2013-04-27 23:30:00,
2013-04-27 19:40:00,59.5,39.8,30.24,NE,35,4.0,4.0,48,0.00,,,0.00,Wunderground v.1.15,2013-04-27 23:40:00,
2013-04-27 19:50:00,59.0,38.8,30.24,NE,38,4.0,5.0,47,0.00,,,0.00,Wunderground v.1.15,2013-04-27 23:50:00,
2013-04-27 20:00:00,58.9,38.7,30.25,NE,39,3.0,4.0,47,0.00,,,0.00,Wunderground v.1.15,2013-04-28 00:00:00,
2013-04-27 20:10:00,58.2,38.6,30.25,NE,41,3.0,4.0,48,0.00,,,0.00,Wunderground v.1.15,2013-04-28 00:10:00,
2013-04-27 20:20:00,57.8,38.2,30.24,NNE,30,2.0,4.0,48,0.00,,,0.00,Wunderground v.1.15,2013-04-28 00:20:00,
2013-04-27 20:30:00,57.0,38.0,30.24,NE,36,2.0,2.0,49,0.00,,,0.00,Wunderground v.1.15,2013-04-28 00:30:00,
2013-04-27 20:40:00,56.4,38.0,30.24,NE,36,2.0,4.0,50,0.00,,,0.00,Wunderground v.1.15,2013-04-28 00:40:00,
2013-04-27 20:50:00,55.5,37.7,30.25,NE,36,1.0,4.0,51,0.00,,,0.00,Wunderground v.1.15,2013-04-28 00:50:00,
2013-04-27 21:00:00,55.7,37.8,30.25,NE,36,1.0,4.0,51,0.00,,,0.00,Wunderground v.1.15,2013-04-28 01:00:00,
2013-04-27 21:10:00,55.6,37.7,30.24,NE,53,2.0,2.0,51,0.00,,,0.00,Wunderground v.1.15,2013-04-28 01:10:00,
2013-04-27 21:20:00,55.7,37.3,30.24,East,81,1.0,4.0,50,0.00,,,0.00,Wunderground v.1.15,2013-04-28 01:20:00,
2013-04-27 21:30:00,53.6,37.8,30.24,East,81,1.0,4.0,55,0.00,,,0.00,Wunderground v.1.15,2013-04-28 01:30:00,
2013-04-27 21:40:00,52.3,37.5,30.24,East,81,1.0,1.0,57,0.00,,,0.00,Wunderground v.1.15,2013-04-28 01:40:00,
2013-04-27 21:50:00,51.9,37.1,30.25,East,81,0.0,4.0,57,0.00,,,0.00,Wunderground v.1.15,2013-04-28 01:50:00,
2013-04-27 22:00:00,50.2,38.1,30.24,SE,140,1.0,1.0,63,0.00,,,0.00,Wunderground v.1.15,2013-04-28 02:00:00,
2013-04-27 22:10:00,49.9,39.4,30.24,SE,140,1.0,4.0,67,0.00,,,0.00,Wunderground v.1.15,2013-04-28 02:10:00,
2013-04-27 22:20:00,49.6,38.3,30.24,SE,140,1.0,4.0,65,0.00,,,0.00,Wunderground v.1.15,2013-04-28 02:20:00,
2013-04-27 22:30:00,50.7,38.1,30.24,SE,140,1.0,4.0,62,0.00,,,0.00,Wunderground v.1.15,2013-04-28 02:30:00,
2013-04-27 22:40:00,51.1,37.7,30.24,SE,128,1.0,4.0,60,0.00,,,0.00,Wunderground v.1.15,2013-04-28 02:40:00,
2013-04-27 22:50:00,51.9,37.6,30.23,ESE,119,2.0,4.0,58,0.00,,,0.00,Wunderground v.1.15,2013-04-28 02:50:00,
2013-04-27 23:00:00,51.5,38.5,30.23,ESE,123,2.0,4.0,61,0.00,,,0.00,Wunderground v.1.15,2013-04-28 03:00:00,
2013-04-27 23:10:00,50.2,38.5,30.23,ESE,104,1.0,4.0,64,0.00,,,0.00,Wunderground v.1.15,2013-04-28 03:10:00,
2013-04-27 23:20:00,47.5,38.9,30.23,ESE,113,1.0,4.0,72,0.00,,,0.00,Wunderground v.1.15,2013-04-28 03:20:00,
2013-04-27 23:30:00,46.5,40.0,30.23,South,169,1.0,4.0,78,0.00,,,0.00,Wunderground v.1.15,2013-04-28 03:30:00,
2013-04-27 23:40:00,46.4,40.2,30.23,SSE,163,1.0,1.0,79,0.00,,,0.00,Wunderground v.1.15,2013-04-28 03:40:00,
2013-04-27 23:50:00,46.3,39.1,30.23,SSE,163,1.0,4.0,76,0.00,,,0.00,Wunderground v.1.15,2013-04-28 03:50:00,